{"data":{"norad_id":58551,"intl_designator":"2023-192W","name":"STARLINK-30999","alt_names":[],"object_type":"PAYLOAD","status":"ACTIVE","operator":null,"country":"US","launch_date":"2023-12-08","launch_site_code":"AFWTR","launch_vehicle":null,"mission":null,"orbit_class":"UNKNOWN","rcs_meters":null,"size_class":null,"mass_kg":null,"dimensions":null,"purposes":["comms"],"wikipedia_slug":null,"has_3d_model":false,"image_url":null,"decayed_at":null,"tle_current":{"epoch":"2026-05-25T04:05:45.786912Z","epoch_age_seconds":56996,"freshness":"FRESH","line1":"1 58551U 23192W   26145.17066883 -.00000126  00000+0  78737-5 0  9994","line2":"2 58551  53.1607  57.5266 0001575  94.3798 265.7383 15.30203845137834","mean_motion":15.30203845,"eccentricity":0.0001575,"inclination_deg":53.1607,"raan_deg":57.5266,"arg_perigee_deg":94.3798,"mean_anomaly_deg":265.7383,"bstar":7.8737e-6,"rev_number":13783,"period_min":94.105109244448,"perigee_km":474.12418782367,"apogee_km":476.28299010919,"semimajor_km":6853.3405889664,"source":"CELESTRAK","updated_at":"2026-05-25T13:38:18.664585Z"}}}